#�ϑ�����,���ϕ���,���ϕ���,�ő啗��,�ő啗����������,�ő�u�ԕ���,�ő�u�ԕ�����������
#(�N����),(m/s)   ,(16����),(m/s)   ,(16����)        ,(m/s)       ,(16����)            
2014/2/11 0:01,2.1,11,2.2,11,5.5,12
2014/2/11 0:02,2.3,12,2.3,12,5.1,15
2014/2/11 0:03,2.4,12,2.4,12,4.7,15
2014/2/11 0:04,2.1,12,2.4,12,1,14
2014/2/11 0:05,2,12,2.1,12,2,14
2014/2/11 0:06,2.2,13,2.2,12,4.7,13
2014/2/11 0:07,2.1,13,2.2,12,4.2,11
2014/2/11 0:08,2.1,13,2.1,12,3.1,9
2014/2/11 0:09,1.9,13,2,12,2.4,12
2014/2/11 0:10,1.6,13,1.9,12,1.9,11
2014/2/11 0:11,1.6,13,1.6,12,3.1,1
2014/2/11 0:12,1.6,13,1.6,12,8.4,16
2014/2/11 0:13,1.7,13,1.7,12,4.9,14
2014/2/11 0:14,1.8,13,1.8,13,3.2,1
2014/2/11 0:15,1.8,13,1.8,13,2.5,14
2014/2/11 0:16,1.8,14,1.9,13,3.9,15
2014/2/11 0:17,1.8,14,1.8,13,3,12
2014/2/11 0:18,1.9,14,1.9,13,3.8,12
2014/2/11 0:19,2,14,2,14,3.7,12
2014/2/11 0:20,2.1,14,2.1,14,4.1,14
2014/2/11 0:21,2.2,14,2.2,14,5.2,15
2014/2/11 0:22,2.2,14,2.3,14,3.8,16
2014/2/11 0:23,2.1,14,2.2,14,3.2,15
2014/2/11 0:24,2.2,14,2.2,14,3.5,13
2014/2/11 0:25,2.2,14,2.2,14,2.7,13
2014/2/11 0:26,2.2,13,2.2,14,3.9,14
2014/2/11 0:27,2.3,14,2.3,14,6.3,15
2014/2/11 0:28,2.5,14,2.5,14,7.4,15
2014/2/11 0:29,2.7,15,2.7,14,9.2,16
2014/2/11 0:30,2.8,15,2.8,15,7.5,1
2014/2/11 0:31,2.8,15,2.8,15,3.9,16
2014/2/11 0:32,2.6,16,2.8,15,3.2,16
2014/2/11 0:33,2.6,16,2.6,15,3.6,3
2014/2/11 0:34,2.6,1,2.7,15,3.6,3
2014/2/11 0:35,2.6,1,2.6,15,2.9,1
2014/2/11 0:36,2.5,1,2.6,15,2.1,7
2014/2/11 0:37,2.3,2,2.4,15,2.6,9
2014/2/11 0:38,2,2,2.3,15,2.6,9
2014/2/11 0:39,1.6,2,2,15,1.3,9
2014/2/11 0:40,1.4,3,1.5,15,3.3,9
2014/2/11 0:41,1.2,4,1.4,15,2.7,8
2014/2/11 0:42,1.2,4,1.2,16,2,12
2014/2/11 0:43,1.2,16,1.3,16,4.4,16
2014/2/11 0:44,1.2,13,1.3,1,3.2,14
2014/2/11 0:45,1.2,14,1.2,1,2.7,3
2014/2/11 0:46,1.3,15,1.3,1,2.6,1
2014/2/11 0:47,1.5,16,1.5,2,5.6,4
2014/2/11 0:48,1.6,1,1.6,2,3.8,6
2014/2/11 0:49,1.8,2,1.8,2,4.3,7
2014/2/11 0:50,1.8,2,1.8,2,2.9,6
2014/2/11 0:51,1.9,1,1.9,1,4.2,12
2014/2/11 0:52,2.1,16,2.1,1,4.7,10
2014/2/11 0:53,2,15,2.2,16,2.6,12
2014/2/11 0:54,1.9,14,2,16,0.8,12
2014/2/11 0:55,1.8,12,1.9,16,2,12
2014/2/11 0:56,1.7,12,1.8,16,2.5,12
2014/2/11 0:57,1.7,12,1.7,16,4.8,15
2014/2/11 0:58,1.8,13,1.8,16,4.5,16
2014/2/11 0:59,2,13,2,16,5.7,14
2014/2/11 1:00,2.1,14,2.1,16,3.7,15
2014/2/11 1:01,2.1,14,2.1,16,4.9,14
2014/2/11 1:02,2.4,14,2.4,14,9.3,15
2014/2/11 1:03,2.5,14,2.5,14,9.5,14
2014/2/11 1:04,2.6,15,2.6,14,1.6,16
2014/2/11 1:05,2.7,15,2.7,15,1.9,15
2014/2/11 1:06,2.8,15,2.8,15,4.3,15
2014/2/11 1:07,2.7,15,2.8,15,5,16
2014/2/11 1:08,3,15,3,15,9.4,15
2014/2/11 1:09,3,15,3,15,7,14
2014/2/11 1:10,3.2,15,3.2,15,7.9,16
2014/2/11 1:11,3.3,15,3.3,15,5.4,16
2014/2/11 1:12,3,16,3.3,15,4.8,2
2014/2/11 1:13,3,16,3,15,4.8,1
2014/2/11 1:14,3,16,3,15,2.4,7
2014/2/11 1:15,3.1,16,3.1,15,4.5,4
2014/2/11 1:16,3.3,1,3.3,15,6.8,3
2014/2/11 1:17,3.4,1,3.4,1,6.5,3
2014/2/11 1:18,3.3,2,3.5,1,6.8,3
2014/2/11 1:19,3,2,3.3,1,3.5,16
2014/2/11 1:20,2.8,2,3,1,3.5,1
2014/2/11 1:21,2.6,2,2.8,1,3.1,15
2014/2/11 1:22,2.8,2,2.8,1,8.7,3
2014/2/11 1:23,3,3,3,1,7.5,3
2014/2/11 1:24,3,2,3,1,5.2,1
2014/2/11 1:25,3,2,3.1,1,2.6,3
2014/2/11 1:26,2.7,2,3,1,2.9,16
2014/2/11 1:27,2.6,2,2.6,1,3.8,1
2014/2/11 1:28,2.6,2,2.6,2,7.1,1
2014/2/11 1:29,2.9,2,2.9,2,7.7,3
2014/2/11 1:30,2.8,2,2.9,2,3.1,2
2014/2/11 1:31,2.9,2,2.9,2,5.1,4
2014/2/11 1:32,2.7,3,2.9,2,4.3,6
2014/2/11 1:33,2.4,2,2.7,2,3,3
2014/2/11 1:34,2.7,2,2.7,2,10.1,1
2014/2/11 1:35,3.1,2,3.1,2,9.4,2
2014/2/11 1:36,3.3,2,3.3,2,10.9,2
2014/2/11 1:37,3.7,2,3.8,2,10.2,3
2014/2/11 1:38,3.8,2,3.9,2,10,3
2014/2/11 1:39,3.7,3,3.8,2,6.2,4
2014/2/11 1:40,4,3,4,3,9.8,3
2014/2/11 1:41,4.6,3,4.6,3,11.7,4
2014/2/11 1:42,4.9,3,4.9,3,8.2,5
2014/2/11 1:43,5.1,3,5.1,3,5.7,6
2014/2/11 1:44,4.9,4,5.1,3,4.2,8
2014/2/11 1:45,4.5,5,4.8,3,2.6,6
2014/2/11 1:46,4.1,5,4.4,3,1,8
2014/2/11 1:47,3.5,6,4,3,0.5,10
2014/2/11 1:48,3.1,6,3.5,3,1.4,10
2014/2/11 1:49,2.8,6,3,3,0.9,6
2014/2/11 1:50,2.4,7,2.8,3,0.6,3
2014/2/11 1:51,1.6,7,2.3,3,0.8,8
2014/2/11 1:52,1.1,8,1.5,3,1.9,13
2014/2/11 1:53,0.9,9,1.1,4,2.1,12
2014/2/11 1:54,0.7,9,0.9,4,1.8,13
2014/2/11 1:55,0.8,10,0.8,5,2.1,11
2014/2/11 1:56,0.9,10,0.9,5,2.7,8
2014/2/11 1:57,0.9,10,0.9,6,2,8
2014/2/11 1:58,0.9,10,0.9,6,0.6,7
2014/2/11 1:59,1,10,1,6,2,7
2014/2/11 2:00,1.1,10,1.1,7,2.4,8
2014/2/11 2:01,1.2,10,1.2,7,2.2,8
2014/2/11 2:02,1.3,10,1.3,10,3.3,9
2014/2/11 2:03,1.3,9,1.3,10,3.7,9
2014/2/11 2:04,1.5,9,1.5,9,5.6,10
2014/2/11 2:05,1.6,9,1.6,9,4.3,9
2014/2/11 2:06,1.5,9,1.6,9,3.2,10
2014/2/11 2:07,1.7,9,1.7,9,4.5,9
2014/2/11 2:08,1.8,9,1.8,9,2.5,10
2014/2/11 2:09,1.9,10,1.9,9,3.8,9
2014/2/11 2:10,1.9,10,1.9,9,2.2,15
2014/2/11 2:11,1.8,10,1.8,9,1.9,15
2014/2/11 2:12,1.7,11,1.8,9,2.6,15
2014/2/11 2:13,1.6,11,1.7,9,1.4,13
2014/2/11 2:14,1.3,11,1.6,9,1.5,10
2014/2/11 2:15,1.2,11,1.3,9,1.5,9
2014/2/11 2:16,1.2,11,1.2,9,1.4,12
2014/2/11 2:17,1,12,1.1,9,2.6,10
2014/2/11 2:18,1.1,11,1.1,9,2.5,7
2014/2/11 2:19,1,11,1.1,10,2.5,8
2014/2/11 2:20,1.1,10,1.1,10,4.4,8
2014/2/11 2:21,1.4,9,1.4,10,4.8,8
2014/2/11 2:22,1.6,9,1.6,11,6.5,9
2014/2/11 2:23,1.8,9,1.8,9,4.5,8
2014/2/11 2:24,2,9,2,9,3.1,10
2014/2/11 2:25,2.2,9,2.2,9,3.1,12
2014/2/11 2:26,2.3,10,2.3,9,2.7,12
2014/2/11 2:27,2.3,10,2.3,9,2.7,12
2014/2/11 2:28,2.3,10,2.3,9,2.4,11
2014/2/11 2:29,2.3,10,2.3,9,2.6,11
2014/2/11 2:30,2.1,10,2.3,9,1.5,8
2014/2/11 2:31,1.9,10,2.1,9,2.4,8
2014/2/11 2:32,1.6,10,1.8,9,2.2,9
2014/2/11 2:33,1.5,10,1.6,9,2.9,9
2014/2/11 2:34,1.5,10,1.6,9,3.2,11
2014/2/11 2:35,1.4,10,1.5,9,3.6,8
2014/2/11 2:36,1.3,10,1.4,10,3.6,10
2014/2/11 2:37,1.2,9,1.3,10,1.8,13
2014/2/11 2:38,1.3,9,1.3,10,3.7,9
2014/2/11 2:39,1.4,9,1.4,10,3.9,9
2014/2/11 2:40,1.5,9,1.5,10,4.8,9
2014/2/11 2:41,1.6,9,1.6,10,3.2,9
2014/2/11 2:42,1.6,9,1.6,10,3.2,8
2014/2/11 2:43,1.5,10,1.6,10,2.2,11
2014/2/11 2:44,1.5,9,1.5,9,2.4,7
2014/2/11 2:45,1.4,10,1.5,9,1,6
2014/2/11 2:46,1.3,10,1.4,9,1.4,12
2014/2/11 2:47,1.3,9,1.3,9,1.6,7
2014/2/11 2:48,1.2,9,1.3,9,1.8,5
2014/2/11 2:49,1.1,9,1.2,9,2,13
2014/2/11 2:50,1.1,9,1.1,9,3.1,16
2014/2/11 2:51,1.2,10,1.2,9,6.4,16
2014/2/11 2:52,1.4,13,1.4,9,6.3,1
2014/2/11 2:53,1.8,15,1.8,15,8.4,15
2014/2/11 2:54,2.1,15,2.1,15,8.3,16
2014/2/11 2:55,2.5,16,2.5,16,9.1,15
2014/2/11 2:56,2.8,16,2.8,16,6.7,16
2014/2/11 2:57,3,16,3,16,9.4,15
2014/2/11 2:58,3.4,15,3.4,15,8.1,15
2014/2/11 2:59,3.6,15,3.6,15,6,15
2014/2/11 3:00,4,15,4,15,10.5,1
2014/2/11 3:01,4.4,15,4.4,15,11.8,16
2014/2/11 3:02,4.5,15,4.6,15,11.3,15
2014/2/11 3:03,4.4,15,4.5,15,6,14
2014/2/11 3:04,4.2,15,4.4,15,5.7,12
2014/2/11 3:05,3.9,15,4.2,15,6,14
2014/2/11 3:06,3.9,15,3.9,15,6,16
2014/2/11 3:07,3.8,15,3.9,15,4.5,15
2014/2/11 3:08,3.8,15,3.8,15,7.1,16
2014/2/11 3:09,3.7,15,3.8,15,6.5,14
2014/2/11 3:10,4,15,4,15,11.3,15
2014/2/11 3:11,3.9,15,3.9,15,9,14
2014/2/11 3:12,4,15,4,15,8.2,15
2014/2/11 3:13,4,15,4,15,6.5,15
2014/2/11 3:14,4.3,15,4.3,15,8.6,15
2014/2/11 3:15,4.6,15,4.6,15,8.7,15
2014/2/11 3:16,4.6,15,4.6,15,5.1,15
2014/2/11 3:17,4.6,15,4.7,15,5.1,15
2014/2/11 3:18,4.5,15,4.6,15,6,16
2014/2/11 3:19,4.3,15,4.5,15,3,15
2014/2/11 3:20,4,15,4.3,15,5.5,16
2014/2/11 3:21,3.8,15,4,15,5,15
2014/2/11 3:22,3.5,15,3.7,15,4.7,15
2014/2/11 3:23,3.2,15,3.4,15,2.6,15
2014/2/11 3:24,2.7,14,3.1,15,0.6,14
2014/2/11 3:25,2.2,14,2.6,15,0.6,11
2014/2/11 3:26,2,14,2.2,15,1.5,14
2014/2/11 3:27,1.8,14,2,15,2.2,16
2014/2/11 3:28,1.5,14,1.7,15,1.3,15
2014/2/11 3:29,1.6,13,1.6,15,2.6,8
2014/2/11 3:30,1.3,12,1.5,15,2.9,7
2014/2/11 3:31,1,12,1.3,15,1.5,15
2014/2/11 3:32,0.7,11,1,15,1.1,15
2014/2/11 3:33,0.7,10,0.7,15,2.4,9
2014/2/11 3:34,0.9,9,0.9,14,4.4,9
2014/2/11 3:35,1.2,9,1.2,14,5.1,8
2014/2/11 3:36,1.3,9,1.3,14,4.2,8
2014/2/11 3:37,1.2,8,1.3,14,2.1,12
2014/2/11 3:38,1.3,8,1.3,13,2.4,6
2014/2/11 3:39,1.3,8,1.3,13,3.8,7
2014/2/11 3:40,1.4,8,1.4,8,3.3,7
2014/2/11 3:41,1.6,8,1.6,8,3.5,8
2014/2/11 3:42,1.7,8,1.7,8,4.9,8
2014/2/11 3:43,1.9,8,1.9,8,4.5,9
2014/2/11 3:44,1.9,8,1.9,8,4.4,9
2014/2/11 3:45,1.7,8,1.8,8,4.5,8
2014/2/11 3:46,1.8,8,1.8,8,4.7,8
2014/2/11 3:47,2.1,8,2.1,8,5.7,7
2014/2/11 3:48,2.2,7,2.2,7,2.9,5
2014/2/11 3:49,2.1,7,2.2,7,2.7,6
2014/2/11 3:50,2.1,7,2.1,7,5.1,8
2014/2/11 3:51,2.1,7,2.1,7,6.3,7
2014/2/11 3:52,2.3,7,2.3,7,4.8,7
2014/2/11 3:53,2.4,7,2.4,7,5.1,7
2014/2/11 3:54,2.6,7,2.6,7,5.2,8
2014/2/11 3:55,2.8,7,2.8,7,5,8
2014/2/11 3:56,2.9,7,2.9,7,4.4,7
2014/2/11 3:57,2.8,7,2.9,7,4.5,7
2014/2/11 3:58,2.9,8,2.9,7,3.8,8
2014/2/11 3:59,2.9,8,2.9,7,4.5,9
2014/2/11 4:00,2.9,8,3,8,4.3,9
2014/2/11 4:01,2.9,8,2.9,8,3.6,8
2014/2/11 4:02,2.8,8,2.8,8,4.8,8
2014/2/11 4:03,2.7,8,2.8,8,5.7,8
2014/2/11 4:04,2.5,9,2.7,8,3,10
2014/2/11 4:05,2.2,9,2.5,8,3,1
2014/2/11 4:06,1.9,9,2.2,8,1.4,9
2014/2/11 4:07,1.9,9,1.9,8,2.6,9
2014/2/11 4:08,1.9,9,1.9,8,4.4,11
2014/2/11 4:09,2,9,2,8,4.8,11
2014/2/11 4:10,2.1,10,2.1,8,4.8,11
2014/2/11 4:11,2.2,10,2.2,8,5.4,9
2014/2/11 4:12,2.3,11,2.4,8,6.1,13
2014/2/11 4:13,2.3,11,2.4,8,3.9,14
2014/2/11 4:14,2.3,11,2.4,9,3,10
2014/2/11 4:15,2.3,11,2.3,11,3.8,9
2014/2/11 4:16,2.5,11,2.5,11,5.7,1
2014/2/11 4:17,2.7,12,2.7,12,6.1,16
2014/2/11 4:18,2.7,13,2.7,12,5.5,14
2014/2/11 4:19,2.7,13,2.7,12,6,15
2014/2/11 4:20,2.8,14,2.8,14,7.6,16
2014/2/11 4:21,2.9,15,2.9,14,8.2,15
2014/2/11 4:22,2.8,15,3,15,5.5,15
2014/2/11 4:23,2.8,15,2.8,15,4.4,15
2014/2/11 4:24,2.9,16,2.9,15,5.7,15
2014/2/11 4:25,3.1,16,3.1,16,6.5,16
2014/2/11 4:26,3.2,16,3.2,16,5.4,1
2014/2/11 4:27,2.9,16,3.1,16,2,1
2014/2/11 4:28,2.8,16,2.9,16,1.6,12
2014/2/11 4:29,2.8,15,2.8,16,3.9,15
2014/2/11 4:30,2.5,15,2.7,16,3.6,13
2014/2/11 4:31,2.4,15,2.5,16,3.8,13
2014/2/11 4:32,2.4,15,2.4,16,3.6,14
2014/2/11 4:33,2.4,14,2.4,16,2.6,13
2014/2/11 4:34,2.4,14,2.4,16,3.6,12
2014/2/11 4:35,2.4,14,2.4,16,5.6,11
2014/2/11 4:36,2.3,13,2.3,16,4.2,4
2014/2/11 4:37,2.4,13,2.4,16,4.3,8
2014/2/11 4:38,2.4,13,2.5,15,3.5,13
2014/2/11 4:39,2.4,13,2.4,15,3.9,15
2014/2/11 4:40,2.3,13,2.4,15,3.3,8
2014/2/11 4:41,2.3,12,2.4,13,4.7,9
2014/2/11 4:42,2.4,11,2.4,13,5.6,8
2014/2/11 4:43,2.3,10,2.3,13,3.2,8
2014/2/11 4:44,2.2,9,2.3,13,2.9,9
2014/2/11 4:45,2,9,2.2,13,4.9,9
2014/2/11 4:46,2,9,2.1,13,4.8,7
2014/2/11 4:47,2,9,2.1,13,3.5,9
2014/2/11 4:48,1.9,9,2,13,1.3,10
2014/2/11 4:49,1.7,9,1.9,13,1.3,13
2014/2/11 4:50,1.8,9,1.8,12,3.2,9
2014/2/11 4:51,1.5,9,1.7,12,5,9
2014/2/11 4:52,1.5,9,1.6,11,5.5,7
2014/2/11 4:53,1.6,9,1.6,10,3.8,8
2014/2/11 4:54,1.6,10,1.6,9,4.3,9
2014/2/11 4:55,1.7,10,1.7,9,4.8,9
2014/2/11 4:56,1.6,9,1.7,9,3.3,9
2014/2/11 4:57,1.7,9,1.7,9,7.6,9
2014/2/11 4:58,1.8,9,1.8,9,4.4,8
2014/2/11 4:59,2,9,2,9,3.6,16
2014/2/11 5:00,2,8,2,9,2.7,2
2014/2/11 5:01,2,7,2,9,3.2,4
2014/2/11 5:02,1.9,6,2,9,2.5,8
2014/2/11 5:03,1.8,5,1.9,9,2.5,2
2014/2/11 5:04,1.9,4,1.9,9,2.9,2
2014/2/11 5:05,1.9,4,2,9,4.2,7
2014/2/11 5:06,2,4,2,9,4.9,7
2014/2/11 5:07,2,4,2,9,4.7,7
2014/2/11 5:08,2.1,5,2.1,5,4.4,9
2014/2/11 5:09,2.1,6,2.1,5,3.3,11
2014/2/11 5:10,2.2,7,2.2,7,3.2,10
2014/2/11 5:11,2.1,8,2.2,7,2.2,10
2014/2/11 5:12,2.2,9,2.2,7,2.7,11
2014/2/11 5:13,2.2,9,2.3,9,2.7,6
2014/2/11 5:14,2.1,9,2.2,9,2.5,4
2014/2/11 5:15,2,9,2.1,9,3.7,8
2014/2/11 5:16,2.1,9,2.1,9,5.4,8
2014/2/11 5:17,2.1,9,2.1,9,6.8,8
2014/2/11 5:18,2.2,9,2.2,9,5.8,8
2014/2/11 5:19,2.1,9,2.2,9,2.2,6
2014/2/11 5:20,2.1,8,2.1,9,2.6,15
2014/2/11 5:21,2,8,2,9,2.7,14
2014/2/11 5:22,2,9,2,9,3,13
2014/2/11 5:23,1.9,9,2,9,3.3,7
2014/2/11 5:24,1.9,9,1.9,9,1.4,13
2014/2/11 5:25,1.8,10,1.9,9,2.2,7
2014/2/11 5:26,1.6,10,1.8,9,1.4,8
2014/2/11 5:27,1.3,11,1.6,9,1,14
2014/2/11 5:28,1,13,1.3,9,1.1,7
2014/2/11 5:29,1.1,13,1.1,9,3.6,9
2014/2/11 5:30,1.1,11,1.1,8,3,10
2014/2/11 5:31,1,11,1.1,8,2.7,8
2014/2/11 5:32,1,10,1,9,2.6,10
2014/2/11 5:33,1,10,1,9,1.5,9
2014/2/11 5:34,1,10,1,9,3.5,7
2014/2/11 5:35,1.1,9,1.1,9,3,7
2014/2/11 5:36,1.3,9,1.3,10,6.7,8
2014/2/11 5:37,1.5,9,1.5,9,6,8
2014/2/11 5:38,1.6,9,1.6,9,5,9
2014/2/11 5:39,1.7,9,1.7,9,5.2,9
2014/2/11 5:40,1.9,9,1.9,9,4.9,11
2014/2/11 5:41,2,10,2,10,3.1,13
2014/2/11 5:42,2.1,10,2.1,10,3.9,8
2014/2/11 5:43,2.2,9,2.2,10,4.3,8
2014/2/11 5:44,2.4,9,2.4,9,4.8,9
2014/2/11 5:45,2.3,9,2.4,9,3.1,9
2014/2/11 5:46,2.4,10,2.4,9,4.8,11
2014/2/11 5:47,2.4,10,2.4,9,4.4,9
2014/2/11 5:48,2.5,10,2.5,10,3.6,10
2014/2/11 5:49,2.3,10,2.4,10,2.5,11
2014/2/11 5:50,2.2,10,2.3,10,2.7,10
2014/2/11 5:51,2.3,10,2.3,10,3.6,10
2014/2/11 5:52,2.2,10,2.2,10,3.6,11
2014/2/11 5:53,2.2,10,2.2,10,3,9
2014/2/11 5:54,2.1,10,2.2,10,3.8,7
2014/2/11 5:55,2.1,10,2.1,10,4.4,10
2014/2/11 5:56,2.1,10,2.2,10,4.3,9
2014/2/11 5:57,2,10,2.1,10,4.8,8
2014/2/11 5:58,2,10,2,10,4.7,8
2014/2/11 5:59,2,10,2,10,2.6,9
2014/2/11 6:00,2,10,2,10,4.4,9
2014/2/11 6:01,1.9,9,2,10,4.3,10
2014/2/11 6:02,1.7,9,1.9,10,1.3,8
2014/2/11 6:03,1.7,9,1.7,10,3.3,7
2014/2/11 6:04,1.6,9,1.7,10,2.4,8
2014/2/11 6:05,1.6,9,1.6,10,1.9,12
2014/2/11 6:06,1.6,10,1.6,10,3.1,11
2014/2/11 6:07,1.6,10,1.6,10,3,9
2014/2/11 6:08,1.6,10,1.6,10,4.8,10
2014/2/11 6:09,1.8,10,1.8,10,5.1,10
2014/2/11 6:10,1.9,10,1.9,10,3.8,10
2014/2/11 6:11,1.9,11,1.9,9,2.5,12
2014/2/11 6:12,1.9,11,1.9,10,1.9,13
2014/2/11 6:13,1.9,11,1.9,10,1.5,10
2014/2/11 6:14,1.9,11,1.9,10,2.6,10
2014/2/11 6:15,2,10,2,11,2.7,9
2014/2/11 6:16,2,10,2,11,4.9,10
2014/2/11 6:17,2,10,2,11,4.8,8
2014/2/11 6:18,2,10,2.1,10,6,9
2014/2/11 6:19,1.9,10,2,10,4.3,8
2014/2/11 6:20,1.9,10,1.9,10,4.4,8
2014/2/11 6:21,1.8,9,1.9,10,3.6,8
2014/2/11 6:22,1.8,9,1.8,10,2.5,9
2014/2/11 6:23,1.8,9,1.8,10,0.8,14
2014/2/11 6:24,1.7,9,1.8,10,1,1
2014/2/11 6:25,1.7,9,1.7,10,2.4,16
2014/2/11 6:26,1.9,10,1.9,10,7.6,14
2014/2/11 6:27,1.9,11,1.9,10,5.7,12
2014/2/11 6:28,2.3,13,2.3,13,14.1,15
2014/2/11 6:29,3,14,3,14,13.9,16
2014/2/11 6:30,3.4,15,3.4,15,12.3,16
2014/2/11 6:31,3.6,16,3.6,16,6.8,4
2014/2/11 6:32,3.8,16,3.8,16,5.5,7
2014/2/11 6:33,4,1,4,1,4.1,4
2014/2/11 6:34,4.2,1,4.2,1,4.5,4
2014/2/11 6:35,4.1,1,4.2,1,1.6,6
2014/2/11 6:36,3.8,2,4.1,1,3.8,8
2014/2/11 6:37,3.6,3,3.8,1,2.1,5
2014/2/11 6:38,3.2,5,3.5,1,2.2,8
2014/2/11 6:39,2.4,5,3.1,1,3.7,10
2014/2/11 6:40,1.9,6,2.4,1,2.1,14
2014/2/11 6:41,1.7,7,1.9,1,3.8,9
2014/2/11 6:42,1.7,8,1.8,1,5.8,10
2014/2/11 6:43,1.9,8,1.9,1,6,10
2014/2/11 6:44,2.1,9,2.1,1,7,10
2014/2/11 6:45,2.3,9,2.4,1,6.9,9
2014/2/11 6:46,2.5,10,2.5,3,5.8,9
2014/2/11 6:47,2.7,10,2.7,4,4.8,8
2014/2/11 6:48,2.7,10,2.7,5,5.4,9
2014/2/11 6:49,2.6,10,2.7,10,3.2,11
2014/2/11 6:50,2.6,10,2.7,10,1.3,2
2014/2/11 6:51,2.6,10,2.6,10,2.6,14
2014/2/11 6:52,2.5,11,2.5,10,3.9,14
2014/2/11 6:53,2.3,12,2.5,10,3.7,16
2014/2/11 6:54,2.1,12,2.2,10,6.5,9
2014/2/11 6:55,2.1,12,2.1,10,6.9,10
2014/2/11 6:56,2,12,2.1,10,4.7,8
2014/2/11 6:57,1.9,12,2,10,3.5,11
2014/2/11 6:58,1.8,13,1.9,10,2.2,11
2014/2/11 6:59,1.7,12,1.8,10,1.8,12
2014/2/11 7:00,1.8,12,1.8,10,1.3,8
2014/2/11 7:01,1.7,12,1.7,10,1.3,4
2014/2/11 7:02,1.6,11,1.7,11,2.2,8
2014/2/11 7:03,1.6,10,1.6,12,2.6,8
2014/2/11 7:04,1.6,9,1.7,12,4.2,6
2014/2/11 7:05,1.6,9,1.6,12,3.9,6
2014/2/11 7:06,1.7,8,1.7,12,5.8,6
2014/2/11 7:07,1.9,8,1.9,12,6.2,6
2014/2/11 7:08,2.1,7,2.1,7,6.9,7
2014/2/11 7:09,2.2,7,2.2,7,4.8,7
2014/2/11 7:10,2.3,7,2.3,7,2,14
2014/2/11 7:11,2.4,7,2.4,7,2.6,13
2014/2/11 7:12,2.4,7,2.4,7,2,15
2014/2/11 7:13,2.3,7,2.4,7,3,8
2014/2/11 7:14,2.2,8,2.3,7,3.3,10
2014/2/11 7:15,2.1,9,2.2,7,4.5,9
2014/2/11 7:16,2,9,2,7,5.4,8
2014/2/11 7:17,2,10,2.1,7,7,8
2014/2/11 7:18,1.9,10,1.9,7,6.8,8
2014/2/11 7:19,2.1,10,2.1,7,7.1,8
2014/2/11 7:20,2.4,9,2.4,7,7,9
2014/2/11 7:21,2.5,9,2.5,9,4.8,8
2014/2/11 7:22,2.6,9,2.6,9,3.9,8
2014/2/11 7:23,2.6,9,2.6,9,3.1,8
2014/2/11 7:24,2.5,9,2.6,9,1.6,9
2014/2/11 7:25,2.5,9,2.5,9,2.7,7
2014/2/11 7:26,2.5,8,2.6,9,4.1,7
2014/2/11 7:27,2.6,8,2.6,9,6,8
2014/2/11 7:28,2.6,8,2.7,8,5.1,9
2014/2/11 7:29,2.4,8,2.6,8,3.9,8
2014/2/11 7:30,2.1,8,2.4,8,2.5,9
2014/2/11 7:31,2,8,2.1,8,2.6,7
2014/2/11 7:32,1.9,8,2,8,2.2,9
2014/2/11 7:33,2,8,2,8,2.9,11
2014/2/11 7:34,2.1,9,2.1,8,3.2,13
2014/2/11 7:35,2.1,9,2.1,8,2.7,14
2014/2/11 7:36,2,10,2.1,8,3.1,15
2014/2/11 7:37,1.7,10,2,8,2.5,1
2014/2/11 7:38,1.5,10,1.7,8,2.4,8
2014/2/11 7:39,1.4,10,1.5,8,3.2,10
2014/2/11 7:40,1.5,10,1.5,8,3.7,9
2014/2/11 7:41,1.4,11,1.5,9,2.9,6
2014/2/11 7:42,1.6,10,1.6,9,5,5
2014/2/11 7:43,1.7,9,1.7,9,4.8,5
2014/2/11 7:44,1.6,7,1.7,9,3.3,7
2014/2/11 7:45,1.6,6,1.6,9,1.6,10
2014/2/11 7:46,1.5,7,1.5,10,3.2,7
2014/2/11 7:47,1.7,7,1.7,10,5,5
2014/2/11 7:48,1.7,7,1.7,9,2.9,3
2014/2/11 7:49,1.7,6,1.7,9,3.1,8
2014/2/11 7:50,1.7,6,1.7,9,2,9
2014/2/11 7:51,1.7,7,1.7,9,1.9,9
2014/2/11 7:52,1.5,7,1.6,9,2.4,16
2014/2/11 7:53,1.4,6,1.5,9,3.2,16
2014/2/11 7:54,1.5,5,1.5,7,4.9,3
2014/2/11 7:55,1.6,5,1.6,7,3,14
2014/2/11 7:56,1.5,4,1.6,7,3.2,16
2014/2/11 7:57,1.5,2,1.6,6,3.7,16
2014/2/11 7:58,1.5,1,1.6,7,2.6,1
2014/2/11 7:59,1.5,1,1.5,6,1.3,7
2014/2/11 8:00,1.5,1,1.5,6,2.6,15
2014/2/11 8:01,1.7,16,1.7,16,3.7,14
2014/2/11 8:02,1.7,16,1.7,16,2.7,15
2014/2/11 8:03,1.8,15,1.8,16,6.1,15
2014/2/11 8:04,1.8,15,1.8,16,4.4,15
2014/2/11 8:05,1.9,16,1.9,15,5.5,4
2014/2/11 8:06,1.9,16,2,16,3.3,5
2014/2/11 8:07,1.9,16,1.9,16,4.1,16
2014/2/11 8:08,2,16,2,16,5.8,15
2014/2/11 8:09,2.2,16,2.2,16,4.8,2
2014/2/11 8:10,2.4,16,2.4,16,5.4,16
2014/2/11 8:11,2.6,16,2.6,16,9.1,16
2014/2/11 8:12,2.8,1,2.8,1,6.7,1
2014/2/11 8:13,2.6,1,2.8,1,3.7,3
2014/2/11 8:14,2.7,1,2.7,1,5.6,2
2014/2/11 8:15,2.8,1,2.8,1,5.8,2
2014/2/11 8:16,3,1,3,1,6.4,1
2014/2/11 8:17,3.3,1,3.3,1,7.6,2
2014/2/11 8:18,3.4,1,3.5,1,12.3,2
2014/2/11 8:19,3.6,2,3.6,1,8.2,4
2014/2/11 8:20,3.7,2,3.8,2,9,6
2014/2/11 8:21,3.9,3,3.9,2,9.3,5
2014/2/11 8:22,3.7,3,3.9,2,3.2,6
2014/2/11 8:23,3.7,3,3.8,2,2.4,5
2014/2/11 8:24,3.5,4,3.7,2,4.2,4
2014/2/11 8:25,3.4,4,3.5,2,3.9,4
2014/2/11 8:26,3.2,5,3.4,2,3.8,5
2014/2/11 8:27,2.8,5,3.2,2,0.5,1
2014/2/11 8:28,2.5,5,2.7,2,4.3,16
2014/2/11 8:29,2.5,5,2.5,2,11.1,2
2014/2/11 8:30,2.7,4,2.7,2,10.8,1
2014/2/11 8:31,2.6,4,2.7,3,8.6,2
2014/2/11 8:32,3.2,4,3.2,3,10.5,5
2014/2/11 8:33,3.9,4,3.9,4,13.6,4
2014/2/11 8:34,4.1,4,4.1,4,8.4,5
2014/2/11 8:35,4.2,4,4.3,4,6.3,5
2014/2/11 8:36,4.2,3,4.2,4,2.9,4
2014/2/11 8:37,4.3,3,4.3,4,2.9,16
2014/2/11 8:38,4.3,3,4.4,3,2.2,14
2014/2/11 8:39,4,4,4.3,3,1.9,8
2014/2/11 8:40,3.6,4,4,3,3.2,7
2014/2/11 8:41,3.2,5,3.6,3,3.2,8
2014/2/11 8:42,2.7,5,3.1,3,4.8,6
2014/2/11 8:43,2,5,2.6,3,4.5,1
2014/2/11 8:44,1.8,5,2,3,2.5,6
2014/2/11 8:45,1.6,6,1.8,3,3.5,12
2014/2/11 8:46,1.5,6,1.6,3,1.6,4
2014/2/11 8:47,1.6,7,1.6,3,3.2,5
2014/2/11 8:48,1.5,7,1.6,3,3,8
2014/2/11 8:49,1.5,7,1.5,4,2.1,1
2014/2/11 8:50,1.5,6,1.5,4,2.7,2
2014/2/11 8:51,1.7,2,1.7,5,6.4,16
2014/2/11 8:52,2,16,2,5,7.5,15
2014/2/11 8:53,2.1,16,2.1,16,4.7,15
2014/2/11 8:54,2.1,15,2.2,16,3.5,16
2014/2/11 8:55,2.1,15,2.1,16,2.1,13
2014/2/11 8:56,2,15,2.1,16,0.6,12
2014/2/11 8:57,1.9,15,2,16,1.6,15
2014/2/11 8:58,1.9,15,1.9,16,2,15
2014/2/11 8:59,1.9,15,1.9,16,2,14
2014/2/11 9:00,1.8,15,1.9,16,1.1,1
2014/2/11 9:01,1.6,15,1.8,16,4.1,9
2014/2/11 9:02,1.4,14,1.6,16,4.2,9
2014/2/11 9:03,1.3,14,1.3,16,3,7
2014/2/11 9:04,1.3,12,1.3,15,2.7,8
2014/2/11 9:05,1.4,9,1.4,15,2.9,7
2014/2/11 9:06,1.5,8,1.5,15,2.6,4
2014/2/11 9:07,1.5,8,1.5,15,2.2,4
2014/2/11 9:08,1.5,8,1.5,15,1.6,7
2014/2/11 9:09,1.5,7,1.5,15,3.6,3
2014/2/11 9:10,1.7,7,1.7,15,3.7,3
2014/2/11 9:11,1.7,6,1.8,7,2.4,5
2014/2/11 9:12,1.5,6,1.7,7,0.8,4
2014/2/11 9:13,1.5,6,1.5,7,2.2,6
2014/2/11 9:14,1.4,6,1.4,7,3,8
2014/2/11 9:15,1.4,6,1.4,7,3.5,8
2014/2/11 9:16,1.3,6,1.3,7,1.9,6
2014/2/11 9:17,1.4,6,1.4,7,3.2,8
2014/2/11 9:18,1.5,6,1.5,7,3,7
2014/2/11 9:19,1.5,6,1.6,7,2.6,8
2014/2/11 9:20,1.3,7,1.5,7,1.9,13
2014/2/11 9:21,1.4,8,1.4,6,3.2,9
2014/2/11 9:22,1.6,9,1.6,6,6.1,14
2014/2/11 9:23,1.9,9,1.9,9,7.2,16
2014/2/11 9:24,2.3,10,2.3,10,8.4,16
2014/2/11 9:25,2.5,11,2.5,11,4.8,2
2014/2/11 9:26,2.7,12,2.7,12,4.1,13
2014/2/11 9:27,2.7,12,2.7,12,2.6,13
2014/2/11 9:28,2.7,13,2.7,12,2.9,12
2014/2/11 9:29,2.6,13,2.7,12,1.8,9
2014/2/11 9:30,2.6,13,2.6,12,2.2,8
2014/2/11 9:31,2.6,13,2.6,12,4.9,8
2014/2/11 9:32,2.6,13,2.7,12,4.3,7
2014/2/11 9:33,2.3,12,2.5,12,3.6,6
2014/2/11 9:34,2.1,10,2.3,12,4.9,3
2014/2/11 9:35,2.1,9,2.1,12,3.9,3
2014/2/11 9:36,2,6,2,12,4.3,4
2014/2/11 9:37,2.2,6,2.2,13,5,6
2014/2/11 9:38,2.3,5,2.3,13,5.4,5
2014/2/11 9:39,2.4,5,2.4,13,3.5,5
2014/2/11 9:40,2.4,5,2.4,13,2.4,10
2014/2/11 9:41,2.3,5,2.4,13,3.2,10
2014/2/11 9:42,2.4,5,2.4,13,4.2,12
2014/2/11 9:43,2.6,5,2.6,5,7,13
2014/2/11 9:44,2.7,7,2.8,6,8.2,11
2014/2/11 9:45,2.7,7,2.7,6,4.1,1
2014/2/11 9:46,2.8,8,2.8,6,6.4,2
2014/2/11 9:47,2.8,13,2.9,8,8.1,4
2014/2/11 9:48,2.7,13,2.7,8,3.9,15
2014/2/11 9:49,3,14,3,14,7.8,4
2014/2/11 9:50,3.1,15,3.1,14,4.7,3
2014/2/11 9:51,3.1,16,3.1,14,2.5,2
2014/2/11 9:52,3,16,3,14,4.2,11
2014/2/11 9:53,2.8,16,3,14,3.8,10
2014/2/11 9:54,2.9,15,2.9,14,8.3,13
2014/2/11 9:55,3.1,14,3.1,14,7.8,13
2014/2/11 9:56,3.3,13,3.3,13,8.5,12
2014/2/11 9:57,3.2,13,3.3,13,4.5,16
2014/2/11 9:58,3.2,13,3.3,13,3.3,12
2014/2/11 9:59,2.9,13,3.2,13,6.4,5
2014/2/11 10:00,3,13,3,13,6.3,4
2014/2/11 10:01,3.1,14,3.1,13,5,15
2014/2/11 10:02,3.1,15,3.2,13,3.8,3
2014/2/11 10:03,3.2,16,3.2,13,6.4,2
2014/2/11 10:04,3.2,1,3.3,13,7.6,4
2014/2/11 10:05,2.9,2,3.2,13,6.1,3
2014/2/11 10:06,2.5,2,2.9,13,1.9,16
2014/2/11 10:07,2.4,3,2.5,14,4.7,4
2014/2/11 10:08,2.5,3,2.5,16,5.7,3
2014/2/11 10:09,2.4,3,2.5,16,3.3,5
2014/2/11 10:10,2.2,3,2.4,16,1.4,15
2014/2/11 10:11,2.2,3,2.2,16,6,3
2014/2/11 10:12,2.3,3,2.3,16,7.5,4
2014/2/11 10:13,2.2,3,2.3,16,4.1,3
2014/2/11 10:14,2,3,2.2,1,4.7,5
2014/2/11 10:15,2,3,2,2,4.2,6
2014/2/11 10:16,2.1,4,2.1,2,3.8,5
2014/2/11 10:17,2.1,4,2.1,3,2.1,8
2014/2/11 10:18,1.9,4,2.1,3,1.8,13
2014/2/11 10:19,1.9,2,1.9,3,2.6,14
2014/2/11 10:20,2,1,2,3,3.1,14
2014/2/11 10:21,1.9,15,2,3,2.4,11
2014/2/11 10:22,1.8,13,2,3,5.2,10
2014/2/11 10:23,2,13,2,3,8.5,16
2014/2/11 10:24,2.1,14,2.1,4,5.6,15
2014/2/11 10:25,2.1,14,2.1,4,3.7,15
2014/2/11 10:26,1.9,14,2.1,4,2.2,13
2014/2/11 10:27,1.9,14,1.9,4,2.1,5
2014/2/11 10:28,2,13,2,14,3,6
2014/2/11 10:29,1.9,13,2,14,3.1,9
2014/2/11 10:30,1.9,13,1.9,14,2.1,5
2014/2/11 10:31,2,15,2,14,3.8,3
2014/2/11 10:32,2.1,16,2.1,14,5.8,14
2014/2/11 10:33,2.3,15,2.3,15,9.7,13
2014/2/11 10:34,2.6,16,2.6,16,13.2,3
2014/2/11 10:35,2.8,2,2.8,2,7.8,4
2014/2/11 10:36,3.1,2,3.1,2,7.2,16
2014/2/11 10:37,3.8,2,3.8,1,14,2
2014/2/11 10:38,4.2,1,4.2,1,12.6,1
2014/2/11 10:39,4.5,1,4.5,1,7.1,3
2014/2/11 10:40,4.8,1,4.8,1,5.4,5
2014/2/11 10:41,4.9,2,4.9,2,7,3
2014/2/11 10:42,5,2,5.1,2,8.3,3
2014/2/11 10:43,4.7,2,4.9,2,5.8,3
2014/2/11 10:44,4.3,2,4.7,2,4.8,3
2014/2/11 10:45,4.2,2,4.3,2,5.8,16
2014/2/11 10:46,4.2,2,4.3,2,7.2,15
2014/2/11 10:47,3.5,2,4.2,2,3,14
2014/2/11 10:48,3.2,2,3.5,2,4.9,16
2014/2/11 10:49,3,1,3.2,2,4.1,14
2014/2/11 10:50,2.8,16,3,2,3.9,13
2014/2/11 10:51,2.7,15,2.8,2,4.4,13
2014/2/11 10:52,2.4,15,2.6,2,3,15
2014/2/11 10:53,2.2,15,2.4,2,2.7,5
2014/2/11 10:54,2,15,2.2,2,1.3,12
2014/2/11 10:55,1.9,15,2,2,3.5,2
2014/2/11 10:56,1.6,15,1.9,2,4.1,16
2014/2/11 10:57,1.6,15,1.6,2,1.9,10
2014/2/11 10:58,1.4,15,1.6,2,1.8,8
2014/2/11 10:59,1.3,14,1.3,1,3.3,10
2014/2/11 11:00,1.4,14,1.4,16,5.6,9
2014/2/11 11:01,1.4,13,1.5,15,5.1,11
2014/2/11 11:02,1.5,13,1.5,15,3.6,1
2014/2/11 11:03,1.4,13,1.5,15,2.7,16
2014/2/11 11:04,1.5,11,1.5,15,3.5,1
2014/2/11 11:05,1.6,8,1.6,15,4.7,6
2014/2/11 11:06,1.7,7,1.7,7,4.2,2
2014/2/11 11:07,1.7,6,1.7,7,2.6,4
2014/2/11 11:08,1.8,5,1.8,6,2.9,16
2014/2/11 11:09,1.8,2,1.8,6,3.6,16
2014/2/11 11:10,1.8,2,1.8,6,3.1,15
2014/2/11 11:11,1.6,2,1.8,6,2.1,16
2014/2/11 11:12,1.6,2,1.6,6,1.4,16
2014/2/11 11:13,1.5,2,1.5,6,1,3
2014/2/11 11:14,1.5,2,1.5,6,2.2,9
2014/2/11 11:15,1.6,2,1.6,6,4.8,9
2014/2/11 11:16,1.6,16,1.6,6,5.4,9
2014/2/11 11:17,1.8,12,1.8,6,4.8,7
2014/2/11 11:18,1.9,9,1.9,10,4.7,9
2014/2/11 11:19,1.8,8,1.9,10,2,9
2014/2/11 11:20,1.8,7,1.8,10,3.7,6
2014/2/11 11:21,2,7,2,7,4.1,8
2014/2/11 11:22,2.2,8,2.2,8,4.1,9
2014/2/11 11:23,2.2,8,2.2,8,2.1,10